Time,TemperatureF,DewpointF,PressureIn,WindDirection,WindDirectionDegrees,WindSpeedMPH,WindSpeedGustMPH,Humidity,HourlyPrecipIn,Conditions,Clouds,dailyrainin,SoftwareType,DateUTC
2013-05-27 00:00:00,58.3,57.2,30.07,East,98,15.0,15.0,96,0.00,,,0.00,Wunderground v.1.15,2013-05-27 05:00:00,
2013-05-27 00:05:00,58.2,57.1,30.06,ESE,102,14.0,20.0,96,0.00,,,0.00,Wunderground v.1.15,2013-05-27 05:05:00,
2013-05-27 00:10:00,58.1,57.0,30.06,East,84,15.0,18.0,96,0.00,,,0.00,Wunderground v.1.15,2013-05-27 05:10:00,
2013-05-27 00:20:00,58.1,57.0,30.06,ENE,69,16.0,17.0,96,0.00,,,0.00,Wunderground v.1.15,2013-05-27 05:20:00,
2013-05-27 00:30:00,58.3,56.9,30.06,East,86,15.0,15.0,95,0.00,,,0.00,Wunderground v.1.15,2013-05-27 05:30:00,
2013-05-27 00:35:00,58.3,56.9,30.06,East,84,13.0,16.0,95,0.00,,,0.00,Wunderground v.1.15,2013-05-27 05:35:00,
2013-05-27 00:40:00,58.2,56.8,30.05,East,79,12.0,17.0,95,0.00,,,0.01,Wunderground v.1.15,2013-05-27 05:40:00,
2013-05-27 00:45:00,58.1,57.0,30.05,East,85,14.0,17.0,96,0.55,,,0.12,Wunderground v.1.15,2013-05-27 05:45:00,
2013-05-27 00:50:00,57.9,56.8,30.05,ENE,65,14.0,17.0,96,0.32,,,0.16,Wunderground v.1.15,2013-05-27 05:50:00,
2013-05-27 00:55:00,57.8,56.7,30.06,ENE,62,14.0,17.0,96,0.16,,,0.17,Wunderground v.1.15,2013-05-27 05:55:00,
2013-05-27 01:00:00,57.8,57.0,30.06,ENE,67,13.0,13.0,97,0.07,,,0.17,Wunderground v.1.15,2013-05-27 06:00:00,
2013-05-27 01:10:00,57.8,57.0,30.05,East,88,12.0,14.0,97,0.04,,,0.19,Wunderground v.1.15,2013-05-27 06:10:00,
2013-05-27 01:15:00,57.7,56.9,30.04,East,89,13.0,14.0,97,0.04,,,0.19,Wunderground v.1.15,2013-05-27 06:15:00,
2013-05-27 01:20:00,57.8,57.0,30.05,East,79,11.0,11.0,97,0.04,,,0.19,Wunderground v.1.15,2013-05-27 06:20:00,
2013-05-27 01:25:00,57.8,57.0,30.04,ESE,103,10.0,11.0,97,0.00,,,0.19,Wunderground v.1.15,2013-05-27 06:25:00,
2013-05-27 01:30:00,57.9,57.1,30.04,ESE,110,9.0,9.0,97,0.00,,,0.19,Wunderground v.1.15,2013-05-27 06:30:00,
2013-05-27 01:35:00,57.9,57.1,30.04,ESE,117,8.0,9.0,97,0.00,,,0.19,Wunderground v.1.15,2013-05-27 06:35:00,
2013-05-27 01:40:00,57.9,57.1,30.04,ESE,102,7.0,7.0,97,0.00,,,0.19,Wunderground v.1.15,2013-05-27 06:40:00,
2013-05-27 01:45:00,57.9,57.1,30.03,ESE,120,7.0,7.0,97,0.00,,,0.19,Wunderground v.1.15,2013-05-27 06:45:00,
2013-05-27 01:50:00,57.9,57.1,30.03,East,83,8.0,10.0,97,0.00,,,0.20,Wunderground v.1.15,2013-05-27 06:50:00,
2013-05-27 01:55:00,58.0,57.2,30.03,ESE,120,9.0,10.0,97,0.00,,,0.20,Wunderground v.1.15,2013-05-27 06:55:00,
2013-05-27 02:00:00,58.0,57.2,30.04,East,91,8.0,8.0,97,0.00,,,0.20,Wunderground v.1.15,2013-05-27 07:00:00,
2013-05-27 02:10:00,58.0,57.2,30.04,ESE,107,6.0,7.0,97,0.04,,,0.21,Wunderground v.1.15,2013-05-27 07:10:00,
2013-05-27 02:15:00,58.0,57.2,30.05,ESE,110,7.0,9.0,97,0.04,,,0.21,Wunderground v.1.15,2013-05-27 07:15:00,
2013-05-27 02:20:00,58.0,57.2,30.04,ESE,110,7.0,7.0,97,0.00,,,0.21,Wunderground v.1.15,2013-05-27 07:20:00,
2013-05-27 02:25:00,58.0,57.2,30.04,ESE,107,7.0,7.0,97,0.00,,,0.21,Wunderground v.1.15,2013-05-27 07:25:00,
2013-05-27 02:30:00,58.0,57.2,30.04,ESE,110,7.0,9.0,97,0.00,,,0.21,Wunderground v.1.15,2013-05-27 07:30:00,
2013-05-27 02:35:00,58.1,57.3,30.04,ESE,120,7.0,9.0,97,0.00,,,0.22,Wunderground v.1.15,2013-05-27 07:35:00,
2013-05-27 02:40:00,58.1,57.3,30.05,ESE,121,8.0,8.0,97,0.00,,,0.22,Wunderground v.1.15,2013-05-27 07:40:00,
2013-05-27 02:45:00,58.1,57.3,30.05,SE,128,8.0,10.0,97,0.00,,,0.22,Wunderground v.1.15,2013-05-27 07:45:00,
2013-05-27 02:55:00,58.2,57.4,30.04,ESE,120,8.0,10.0,97,0.00,,,0.22,Wunderground v.1.15,2013-05-27 07:55:00,
2013-05-27 03:00:00,58.2,57.4,30.04,ESE,106,9.0,9.0,97,0.00,,,0.24,Wunderground v.1.15,2013-05-27 08:00:00,
2013-05-27 03:05:00,58.2,57.4,30.02,ESE,102,10.0,11.0,97,0.07,,,0.25,Wunderground v.1.15,2013-05-27 08:05:00,
2013-05-27 03:10:00,58.1,57.3,30.02,ESE,102,10.0,10.0,97,0.07,,,0.25,Wunderground v.1.15,2013-05-27 08:10:00,
2013-05-27 03:15:00,58.1,57.3,30.01,ESE,115,9.0,10.0,97,0.06,,,0.25,Wunderground v.1.15,2013-05-27 08:15:00,
2013-05-27 03:20:00,58.1,57.3,30.01,ESE,110,9.0,9.0,97,0.04,,,0.26,Wunderground v.1.15,2013-05-27 08:20:00,
2013-05-27 03:25:00,58.2,57.4,30.01,ESE,112,8.0,9.0,97,0.04,,,0.26,Wunderground v.1.15,2013-05-27 08:25:00,
2013-05-27 03:30:00,58.3,57.5,30.00,ESE,120,8.0,9.0,97,0.04,,,0.26,Wunderground v.1.15,2013-05-27 08:30:00,
2013-05-27 03:35:00,58.3,57.5,29.99,ESE,122,9.0,10.0,97,0.04,,,0.27,Wunderground v.1.15,2013-05-27 08:35:00,
2013-05-27 03:40:00,58.3,57.5,30.00,ESE,120,10.0,11.0,97,0.04,,,0.27,Wunderground v.1.15,2013-05-27 08:40:00,
2013-05-27 03:45:00,58.3,57.5,29.99,ESE,120,11.0,11.0,97,0.04,,,0.27,Wunderground v.1.15,2013-05-27 08:45:00,
2013-05-27 03:50:00,58.3,57.5,29.99,SE,137,11.0,11.0,97,0.04,,,0.29,Wunderground v.1.15,2013-05-27 08:50:00,
2013-05-27 03:55:00,58.4,57.6,29.99,SE,131,11.0,11.0,97,0.09,,,0.30,Wunderground v.1.15,2013-05-27 08:55:00,
2013-05-27 04:00:00,58.4,57.6,29.99,SE,131,10.0,10.0,97,0.09,,,0.30,Wunderground v.1.15,2013-05-27 09:00:00,
2013-05-27 04:05:00,58.4,57.6,29.99,SE,127,9.0,10.0,97,0.08,,,0.31,Wunderground v.1.15,2013-05-27 09:05:00,
2013-05-27 04:10:00,58.5,57.7,29.99,SE,127,8.0,9.0,97,0.07,,,0.31,Wunderground v.1.15,2013-05-27 09:10:00,
2013-05-27 04:15:00,58.6,57.8,29.99,SE,124,8.0,9.0,97,0.05,,,0.32,Wunderground v.1.15,2013-05-27 09:15:00,
2013-05-27 04:20:00,58.6,57.8,29.99,ESE,120,7.0,7.0,97,0.05,,,0.32,Wunderground v.1.15,2013-05-27 09:20:00,
2013-05-27 04:25:00,58.6,57.8,29.98,ESE,113,6.0,7.0,97,0.05,,,0.32,Wunderground v.1.15,2013-05-27 09:25:00,
2013-05-27 04:30:00,58.6,57.8,29.97,ESE,107,7.0,8.0,97,0.04,,,0.34,Wunderground v.1.15,2013-05-27 09:30:00,
2013-05-27 04:35:00,58.6,57.8,29.97,ESE,120,8.0,10.0,97,0.04,,,0.34,Wunderground v.1.15,2013-05-27 09:35:00,
2013-05-27 04:40:00,58.7,57.9,29.97,ESE,113,7.0,7.0,97,0.07,,,0.35,Wunderground v.1.15,2013-05-27 09:40:00,
2013-05-27 04:45:00,58.7,57.9,29.97,ESE,104,7.0,7.0,97,0.07,,,0.35,Wunderground v.1.15,2013-05-27 09:45:00,
2013-05-27 04:50:00,58.8,58.0,29.97,East,97,6.0,6.0,97,0.05,,,0.35,Wunderground v.1.15,2013-05-27 09:50:00,
2013-05-27 04:55:00,58.8,58.0,29.96,ESE,113,5.0,6.0,97,0.00,,,0.35,Wunderground v.1.15,2013-05-27 09:55:00,
2013-05-27 05:00:00,59.0,58.2,29.96,ESE,116,5.0,6.0,97,0.00,,,0.36,Wunderground v.1.15,2013-05-27 10:00:00,
2013-05-27 05:05:00,59.1,58.2,29.95,SE,129,6.0,6.0,97,0.00,,,0.36,Wunderground v.1.15,2013-05-27 10:05:00,
2013-05-27 05:10:00,59.2,58.3,29.95,ESE,112,7.0,7.0,97,0.00,,,0.36,Wunderground v.1.15,2013-05-27 10:10:00,
2013-05-27 05:15:00,59.3,58.4,29.94,ESE,110,8.0,8.0,97,0.00,,,0.36,Wunderground v.1.15,2013-05-27 10:15:00,
2013-05-27 05:25:00,59.4,58.5,29.94,SE,130,6.0,7.0,97,0.00,,,0.36,Wunderground v.1.15,2013-05-27 10:25:00,
2013-05-27 05:30:00,59.4,58.5,29.93,ESE,108,6.0,6.0,97,0.00,,,0.36,Wunderground v.1.15,2013-05-27 10:30:00,
2013-05-27 05:35:00,59.5,58.6,29.92,East,86,6.0,7.0,97,0.00,,,0.36,Wunderground v.1.15,2013-05-27 10:35:00,
2013-05-27 05:40:00,59.5,58.6,29.92,East,86,7.0,8.0,97,0.00,,,0.36,Wunderground v.1.15,2013-05-27 10:40:00,
2013-05-27 05:45:00,59.4,58.5,29.92,ENE,68,7.0,8.0,97,0.00,,,0.37,Wunderground v.1.15,2013-05-27 10:45:00,
2013-05-27 05:50:00,59.4,58.5,29.93,East,93,7.0,7.0,97,0.00,,,0.37,Wunderground v.1.15,2013-05-27 10:50:00,
2013-05-27 05:55:00,59.5,58.6,29.93,East,91,6.0,7.0,97,0.00,,,0.37,Wunderground v.1.15,2013-05-27 10:55:00,
2013-05-27 06:00:00,59.6,58.7,29.94,ENE,74,5.0,5.0,97,0.00,,,0.39,Wunderground v.1.15,2013-05-27 11:00:00,
2013-05-27 06:05:00,59.7,58.8,29.94,ENE,70,5.0,5.0,97,0.00,,,0.39,Wunderground v.1.15,2013-05-27 11:05:00,
2013-05-27 06:10:00,59.8,58.9,29.94,ENE,61,5.0,7.0,97,0.00,,,0.39,Wunderground v.1.15,2013-05-27 11:10:00,
2013-05-27 06:15:00,59.8,58.9,29.94,East,101,5.0,7.0,97,0.00,,,0.39,Wunderground v.1.15,2013-05-27 11:15:00,
2013-05-27 06:20:00,59.7,58.8,29.95,East,86,4.0,4.0,97,0.00,,,0.39,Wunderground v.1.15,2013-05-27 11:20:00,
2013-05-27 06:25:00,59.7,58.8,29.95,ENE,60,3.0,4.0,97,0.00,,,0.40,Wunderground v.1.15,2013-05-27 11:25:00,
2013-05-27 06:35:00,59.7,58.8,29.97,ENE,63,0.0,2.0,97,0.00,,,0.40,Wunderground v.1.15,2013-05-27 11:35:00,
2013-05-27 06:40:00,59.7,58.8,29.98,ENE,64,0.0,0.0,97,0.04,,,0.41,Wunderground v.1.15,2013-05-27 11:40:00,
2013-05-27 06:45:00,59.7,58.8,29.98,NNE,27,0.0,0.0,97,0.04,,,0.41,Wunderground v.1.15,2013-05-27 11:45:00,
2013-05-27 06:50:00,59.7,58.8,29.99,NNE,27,0.0,0.0,97,0.07,,,0.42,Wunderground v.1.15,2013-05-27 11:50:00,
2013-05-27 06:55:00,59.7,58.8,29.98,NNE,20,1.0,2.0,97,0.12,,,0.44,Wunderground v.1.15,2013-05-27 11:55:00,
2013-05-27 07:00:00,59.7,58.8,29.98,NNE,20,1.0,2.0,97,0.18,,,0.46,Wunderground v.1.15,2013-05-27 12:00:00,
2013-05-27 07:05:00,59.8,58.9,29.98,NNE,20,1.0,2.0,97,0.15,,,0.47,Wunderground v.1.15,2013-05-27 12:05:00,
2013-05-27 07:10:00,59.7,58.8,29.98,NNE,32,2.0,2.0,97,0.33,,,0.50,Wunderground v.1.15,2013-05-27 12:10:00,
2013-05-27 07:15:00,59.7,58.8,29.98,NE,39,2.0,2.0,97,0.21,,,0.52,Wunderground v.1.15,2013-05-27 12:15:00,
2013-05-27 07:20:00,59.7,58.8,29.98,NNE,30,2.0,2.0,97,0.18,,,0.54,Wunderground v.1.15,2013-05-27 12:20:00,
2013-05-27 07:25:00,59.7,58.8,29.97,NE,41,2.0,2.0,97,0.17,,,0.56,Wunderground v.1.15,2013-05-27 12:25:00,
2013-05-27 07:30:00,59.8,58.9,29.97,NE,36,2.0,2.0,97,0.10,,,0.56,Wunderground v.1.15,2013-05-27 12:30:00,
2013-05-27 07:35:00,59.8,58.9,29.97,ENE,60,2.0,2.0,97,0.20,,,0.59,Wunderground v.1.15,2013-05-27 12:35:00,
2013-05-27 07:40:00,59.8,58.9,29.97,NE,51,3.0,4.0,97,0.34,,,0.62,Wunderground v.1.15,2013-05-27 12:40:00,
2013-05-27 07:45:00,59.8,58.9,29.97,ENE,62,4.0,5.0,97,0.34,,,0.65,Wunderground v.1.15,2013-05-27 12:45:00,
2013-05-27 07:50:00,59.9,59.0,29.97,ENE,67,4.0,4.0,97,0.18,,,0.67,Wunderground v.1.15,2013-05-27 12:50:00,
2013-05-27 07:55:00,59.9,59.0,29.97,ENE,58,5.0,5.0,97,0.11,,,0.69,Wunderground v.1.15,2013-05-27 12:55:00,
2013-05-27 08:00:00,60.0,59.1,29.97,ENE,68,5.0,5.0,97,0.09,,,0.69,Wunderground v.1.15,2013-05-27 13:00:00,
2013-05-27 08:05:00,60.0,59.1,29.97,ENE,64,5.0,5.0,97,0.09,,,0.70,Wunderground v.1.15,2013-05-27 13:05:00,
2013-05-27 08:10:00,60.0,59.1,29.97,NE,38,4.0,4.0,97,0.06,,,0.70,Wunderground v.1.15,2013-05-27 13:10:00,
2013-05-27 08:15:00,60.0,59.1,29.97,ENE,71,4.0,4.0,97,0.05,,,0.71,Wunderground v.1.15,2013-05-27 13:15:00,
2013-05-27 08:20:00,60.1,59.2,29.98,ENE,78,3.0,3.0,97,0.05,,,0.71,Wunderground v.1.15,2013-05-27 13:20:00,
2013-05-27 08:25:00,60.2,59.3,29.98,ENE,69,2.0,3.0,97,0.06,,,0.72,Wunderground v.1.15,2013-05-27 13:25:00,
2013-05-27 08:30:00,60.4,59.5,29.98,ENE,69,1.0,1.0,97,0.06,,,0.72,Wunderground v.1.15,2013-05-27 13:30:00,
2013-05-27 08:35:00,60.5,59.6,29.99,NW,323,0.0,1.0,97,0.07,,,0.74,Wunderground v.1.15,2013-05-27 13:35:00,
2013-05-27 08:40:00,60.6,59.7,30.00,NW,309,1.0,2.0,97,0.07,,,0.74,Wunderground v.1.15,2013-05-27 13:40:00,
2013-05-27 08:50:00,60.1,59.2,30.00,NNW,330,2.0,2.0,97,0.10,,,0.76,Wunderground v.1.15,2013-05-27 13:50:00,
2013-05-27 08:55:00,59.9,59.0,30.00,NNE,27,3.0,3.0,97,0.08,,,0.76,Wunderground v.1.15,2013-05-27 13:55:00,
2013-05-27 09:00:00,59.9,59.0,29.99,NNE,22,3.0,4.0,97,0.05,,,0.76,Wunderground v.1.15,2013-05-27 14:00:00,
2013-05-27 09:05:00,60.0,59.1,29.98,ENE,65,3.0,4.0,97,0.00,,,0.76,Wunderground v.1.15,2013-05-27 14:05:00,
2013-05-27 09:10:00,60.1,59.2,29.98,NNE,30,3.0,3.0,97,0.00,,,0.76,Wunderground v.1.15,2013-05-27 14:10:00,
2013-05-27 09:15:00,60.5,59.6,29.98,ENE,62,3.0,6.0,97,0.00,,,0.76,Wunderground v.1.15,2013-05-27 14:15:00,
2013-05-27 09:20:00,60.5,59.6,29.97,ENE,64,5.0,7.0,97,0.00,,,0.77,Wunderground v.1.15,2013-05-27 14:20:00,
2013-05-27 09:25:00,60.6,59.7,29.96,ENE,64,6.0,8.0,97,0.00,,,0.77,Wunderground v.1.15,2013-05-27 14:25:00,
2013-05-27 09:30:00,60.7,59.8,29.96,ENE,63,6.0,6.0,97,0.00,,,0.77,Wunderground v.1.15,2013-05-27 14:30:00,
2013-05-27 09:35:00,60.7,59.8,29.97,NE,54,5.0,6.0,97,0.00,,,0.77,Wunderground v.1.15,2013-05-27 14:35:00,
2013-05-27 09:40:00,60.6,59.7,29.95,ENE,70,5.0,7.0,97,0.00,,,0.77,Wunderground v.1.15,2013-05-27 14:40:00,
2013-05-27 09:45:00,60.9,60.3,29.96,ENE,58,6.0,7.0,98,0.00,,,0.77,Wunderground v.1.15,2013-05-27 14:45:00,
2013-05-27 09:50:00,61.1,60.2,29.95,ENE,64,5.0,8.0,97,0.00,,,0.77,Wunderground v.1.15,2013-05-27 14:50:00,
2013-05-27 09:55:00,61.3,60.4,29.95,ENE,70,5.0,8.0,97,0.00,,,0.77,Wunderground v.1.15,2013-05-27 14:55:00,
2013-05-27 10:00:00,61.4,60.5,29.94,ENE,58,6.0,6.0,97,0.00,,,0.77,Wunderground v.1.15,2013-05-27 15:00:00,
2013-05-27 10:05:00,61.7,60.8,29.94,NE,44,5.0,6.0,97,0.00,,,0.77,Wunderground v.1.15,2013-05-27 15:05:00,
2013-05-27 10:10:00,61.6,60.7,29.94,NE,45,6.0,6.0,97,0.00,,,0.77,Wunderground v.1.15,2013-05-27 15:10:00,
2013-05-27 10:15:00,62.1,61.2,29.94,ENE,63,5.0,6.0,97,0.00,,,0.77,Wunderground v.1.15,2013-05-27 15:15:00,
2013-05-27 10:20:00,62.0,61.1,29.94,ENE,58,6.0,6.0,97,0.00,,,0.77,Wunderground v.1.15,2013-05-27 15:20:00,
2013-05-27 10:25:00,62.1,61.2,29.94,ENE,63,6.0,6.0,97,0.00,,,0.77,Wunderground v.1.15,2013-05-27 15:25:00,
2013-05-27 10:30:00,62.3,61.4,29.94,ENE,65,6.0,6.0,97,0.00,,,0.77,Wunderground v.1.15,2013-05-27 15:30:00,
2013-05-27 10:35:00,62.9,62.0,29.94,ENE,67,6.0,6.0,97,0.00,,,0.77,Wunderground v.1.15,2013-05-27 15:35:00,
2013-05-27 10:40:00,62.4,61.5,29.94,NE,41,5.0,6.0,97,0.00,,,0.77,Wunderground v.1.15,2013-05-27 15:40:00,
2013-05-27 10:45:00,62.7,61.8,29.94,ENE,69,5.0,6.0,97,0.00,,,0.77,Wunderground v.1.15,2013-05-27 15:45:00,
2013-05-27 10:50:00,63.0,62.1,29.95,ESE,104,3.0,3.0,97,0.00,,,0.77,Wunderground v.1.15,2013-05-27 15:50:00,
2013-05-27 10:55:00,62.7,61.8,29.95,ENE,77,2.0,3.0,97,0.00,,,0.77,Wunderground v.1.15,2013-05-27 15:55:00,
2013-05-27 11:00:00,63.2,62.3,29.95,SE,131,2.0,2.0,97,0.00,,,0.77,Wunderground v.1.15,2013-05-27 16:00:00,
2013-05-27 11:10:00,63.3,62.4,29.95,ESE,112,1.0,1.0,97,0.00,,,0.77,Wunderground v.1.15,2013-05-27 16:10:00,
2013-05-27 11:15:00,63.3,62.4,29.95,SE,127,2.0,3.0,97,0.00,,,0.77,Wunderground v.1.15,2013-05-27 16:15:00,
2013-05-27 11:20:00,63.5,62.6,29.95,SE,127,2.0,4.0,97,0.00,,,0.77,Wunderground v.1.15,2013-05-27 16:20:00,
2013-05-27 11:25:00,63.6,62.7,29.95,SE,142,3.0,4.0,97,0.00,,,0.77,Wunderground v.1.15,2013-05-27 16:25:00,
2013-05-27 11:30:00,63.7,62.8,29.94,ESE,120,3.0,3.0,97,0.00,,,0.77,Wunderground v.1.15,2013-05-27 16:30:00,
2013-05-27 11:35:00,63.7,62.8,29.95,SE,131,4.0,5.0,97,0.00,,,0.77,Wunderground v.1.15,2013-05-27 16:35:00,
2013-05-27 11:40:00,63.7,62.8,29.95,SE,132,4.0,4.0,97,0.00,,,0.77,Wunderground v.1.15,2013-05-27 16:40:00,
2013-05-27 11:45:00,63.9,63.0,29.95,SE,127,3.0,4.0,97,0.00,,,0.77,Wunderground v.1.15,2013-05-27 16:45:00,
2013-05-27 11:50:00,64.1,63.2,29.94,ESE,108,3.0,3.0,97,0.00,,,0.77,Wunderground v.1.15,2013-05-27 16:50:00,
2013-05-27 11:55:00,64.1,63.2,29.94,ESE,103,3.0,3.0,97,0.00,,,0.77,Wunderground v.1.15,2013-05-27 16:55:00,
2013-05-27 12:00:00,64.4,63.5,29.95,SE,145,2.0,2.0,97,0.00,,,0.77,Wunderground v.1.15,2013-05-27 17:00:00,
2013-05-27 12:05:00,64.5,63.6,29.95,ESE,120,2.0,2.0,97,0.00,,,0.77,Wunderground v.1.15,2013-05-27 17:05:00,
2013-05-27 12:10:00,64.5,63.6,29.94,ESE,110,2.0,2.0,97,0.00,,,0.77,Wunderground v.1.15,2013-05-27 17:10:00,
2013-05-27 12:15:00,64.7,63.8,29.94,East,81,1.0,2.0,97,0.00,,,0.77,Wunderground v.1.15,2013-05-27 17:15:00,
2013-05-27 12:20:00,64.9,64.0,29.94,ENE,77,2.0,3.0,97,0.00,,,0.77,Wunderground v.1.15,2013-05-27 17:20:00,
2013-05-27 12:25:00,65.4,64.5,29.95,ESE,115,2.0,3.0,97,0.00,,,0.77,Wunderground v.1.15,2013-05-27 17:25:00,
2013-05-27 12:30:00,65.4,64.5,29.95,SSE,150,3.0,3.0,97,0.00,,,0.77,Wunderground v.1.15,2013-05-27 17:30:00,
2013-05-27 12:35:00,65.7,64.8,29.95,SSE,166,3.0,4.0,97,0.00,,,0.77,Wunderground v.1.15,2013-05-27 17:35:00,
2013-05-27 12:40:00,65.9,65.0,29.95,SE,128,3.0,3.0,97,0.00,,,0.77,Wunderground v.1.15,2013-05-27 17:40:00,
2013-05-27 12:45:00,66.1,65.2,29.95,ESE,120,4.0,4.0,97,0.00,,,0.77,Wunderground v.1.15,2013-05-27 17:45:00,
2013-05-27 12:50:00,66.4,65.5,29.94,ESE,110,3.0,3.0,97,0.00,,,0.77,Wunderground v.1.15,2013-05-27 17:50:00,
2013-05-27 12:55:00,66.9,66.0,29.94,ESE,120,3.0,4.0,97,0.00,,,0.77,Wunderground v.1.15,2013-05-27 17:55:00,
2013-05-27 13:00:00,67.3,66.4,29.94,ESE,104,3.0,3.0,97,0.00,,,0.77,Wunderground v.1.15,2013-05-27 18:00:00,
2013-05-27 13:05:00,67.5,66.3,29.94,ENE,76,3.0,4.0,96,0.00,,,0.77,Wunderground v.1.15,2013-05-27 18:05:00,
2013-05-27 13:10:00,67.8,66.3,29.94,East,93,3.0,4.0,95,0.00,,,0.77,Wunderground v.1.15,2013-05-27 18:10:00,
2013-05-27 13:15:00,68.0,66.2,29.93,ENE,66,4.0,6.0,94,0.00,,,0.77,Wunderground v.1.15,2013-05-27 18:15:00,
2013-05-27 13:20:00,68.2,66.1,29.94,SE,139,4.0,4.0,93,0.00,,,0.77,Wunderground v.1.15,2013-05-27 18:20:00,
2013-05-27 13:25:00,68.4,66.3,29.94,SE,146,4.0,6.0,93,0.00,,,0.77,Wunderground v.1.15,2013-05-27 18:25:00,
2013-05-27 13:30:00,68.4,66.0,29.94,ESE,117,4.0,4.0,92,0.00,,,0.77,Wunderground v.1.15,2013-05-27 18:30:00,
2013-05-27 13:35:00,68.4,66.0,29.93,SE,132,4.0,4.0,92,0.00,,,0.77,Wunderground v.1.15,2013-05-27 18:35:00,
2013-05-27 13:40:00,68.5,66.1,29.94,SSE,167,4.0,4.0,92,0.00,,,0.77,Wunderground v.1.15,2013-05-27 18:40:00,
2013-05-27 13:45:00,68.6,65.9,29.94,SSW,197,4.0,5.0,91,0.00,,,0.77,Wunderground v.1.15,2013-05-27 18:45:00,
2013-05-27 13:50:00,68.6,65.9,29.94,SSW,194,4.0,4.0,91,0.00,,,0.77,Wunderground v.1.15,2013-05-27 18:50:00,
2013-05-27 13:55:00,68.7,66.0,29.94,SSE,167,5.0,6.0,91,0.00,,,0.77,Wunderground v.1.15,2013-05-27 18:55:00,
2013-05-27 14:00:00,68.6,65.9,29.94,SSE,158,7.0,7.0,91,0.00,,,0.77,Wunderground v.1.15,2013-05-27 19:00:00,
2013-05-27 14:05:00,68.6,66.2,29.94,SSW,194,7.0,12.0,92,0.00,,,0.77,Wunderground v.1.15,2013-05-27 19:05:00,
2013-05-27 14:15:00,68.1,65.7,29.94,SSW,198,10.0,10.0,92,0.00,,,0.77,Wunderground v.1.15,2013-05-27 19:15:00,
2013-05-27 14:20:00,67.8,65.4,29.94,South,187,10.0,10.0,92,0.00,,,0.77,Wunderground v.1.15,2013-05-27 19:20:00,
2013-05-27 14:25:00,67.6,65.5,29.94,SSW,211,8.0,10.0,93,0.00,,,0.77,Wunderground v.1.15,2013-05-27 19:25:00,
2013-05-27 14:30:00,67.4,65.6,29.93,SSE,157,7.0,7.0,94,0.27,,,0.80,Wunderground v.1.15,2013-05-27 19:30:00,
2013-05-27 14:35:00,67.2,65.4,29.93,SSE,150,7.0,9.0,94,0.18,,,0.81,Wunderground v.1.15,2013-05-27 19:35:00,
2013-05-27 14:40:00,67.0,65.2,29.92,SE,134,8.0,8.0,94,0.12,,,0.82,Wunderground v.1.15,2013-05-27 19:40:00,
2013-05-27 14:45:00,66.9,65.4,29.91,SE,132,8.0,8.0,95,0.07,,,0.82,Wunderground v.1.15,2013-05-27 19:45:00,
2013-05-27 14:50:00,66.8,65.3,29.89,SE,129,8.0,10.0,95,0.05,,,0.82,Wunderground v.1.15,2013-05-27 19:50:00,
2013-05-27 14:55:00,66.7,65.2,29.89,ESE,123,9.0,10.0,95,0.00,,,0.82,Wunderground v.1.15,2013-05-27 19:55:00,
2013-05-27 15:00:00,66.5,65.0,29.87,ESE,113,10.0,14.0,95,0.00,,,0.84,Wunderground v.1.15,2013-05-27 20:00:00,
2013-05-27 15:05:00,66.4,65.2,29.86,ESE,108,11.0,14.0,96,0.00,,,0.84,Wunderground v.1.15,2013-05-27 20:05:00,
2013-05-27 15:10:00,66.3,65.1,29.84,East,101,12.0,18.0,96,0.00,,,0.84,Wunderground v.1.15,2013-05-27 20:10:00,
2013-05-27 15:15:00,66.2,65.0,29.84,ESE,103,13.0,18.0,96,0.00,,,0.84,Wunderground v.1.15,2013-05-27 20:15:00,
2013-05-27 15:20:00,66.2,65.0,29.85,ESE,104,14.0,14.0,96,0.00,,,0.84,Wunderground v.1.15,2013-05-27 20:20:00,
2013-05-27 15:25:00,66.2,65.0,29.84,SE,136,12.0,14.0,96,0.00,,,0.84,Wunderground v.1.15,2013-05-27 20:25:00,
2013-05-27 15:30:00,66.2,65.0,29.83,ESE,106,12.0,15.0,96,0.00,,,0.84,Wunderground v.1.15,2013-05-27 20:30:00,
2013-05-27 15:35:00,66.2,65.0,29.84,ESE,120,12.0,15.0,96,0.00,,,0.84,Wunderground v.1.15,2013-05-27 20:35:00,
2013-05-27 15:40:00,66.3,65.1,29.84,ESE,118,10.0,10.0,96,0.00,,,0.84,Wunderground v.1.15,2013-05-27 20:40:00,
2013-05-27 15:45:00,66.2,65.0,29.83,ESE,108,9.0,10.0,96,0.00,,,0.84,Wunderground v.1.15,2013-05-27 20:45:00,
2013-05-27 15:50:00,66.3,65.1,29.82,ESE,108,7.0,7.0,96,0.00,,,0.84,Wunderground v.1.15,2013-05-27 20:50:00,
2013-05-27 15:55:00,66.3,65.1,29.82,ESE,102,7.0,7.0,96,0.00,,,0.84,Wunderground v.1.15,2013-05-27 20:55:00,
2013-05-27 16:00:00,66.3,65.1,29.83,East,84,7.0,7.0,96,0.00,,,0.84,Wunderground v.1.15,2013-05-27 21:00:00,
2013-05-27 16:05:00,66.4,65.2,29.84,ENE,78,5.0,7.0,96,0.00,,,0.84,Wunderground v.1.15,2013-05-27 21:05:00,
2013-05-27 16:10:00,66.4,65.2,29.85,ESE,103,3.0,3.0,96,0.00,,,0.84,Wunderground v.1.15,2013-05-27 21:10:00,
2013-05-27 16:15:00,66.5,65.3,29.84,East,93,3.0,6.0,96,0.00,,,0.84,Wunderground v.1.15,2013-05-27 21:15:00,
2013-05-27 16:20:00,66.6,65.1,29.84,East,96,4.0,4.0,95,0.00,,,0.84,Wunderground v.1.15,2013-05-27 21:20:00,
2013-05-27 16:25:00,66.7,65.2,29.84,ESE,113,4.0,4.0,95,0.00,,,0.84,Wunderground v.1.15,2013-05-27 21:25:00,
2013-05-27 16:30:00,66.7,65.2,29.84,East,101,4.0,5.0,95,0.00,,,0.84,Wunderground v.1.15,2013-05-27 21:30:00,
2013-05-27 16:35:00,66.9,65.4,29.83,ENE,71,5.0,10.0,95,0.00,,,0.84,Wunderground v.1.15,2013-05-27 21:35:00,
2013-05-27 16:40:00,67.2,65.7,29.82,ESE,104,8.0,9.0,95,0.00,,,0.84,Wunderground v.1.15,2013-05-27 21:40:00,
2013-05-27 16:45:00,67.4,65.9,29.82,East,98,9.0,12.0,95,0.00,,,0.84,Wunderground v.1.15,2013-05-27 21:45:00,
2013-05-27 16:50:00,67.6,66.1,29.81,ENE,77,10.0,10.0,95,0.00,,,0.84,Wunderground v.1.15,2013-05-27 21:50:00,
2013-05-27 16:55:00,67.6,66.1,29.82,ENE,78,10.0,10.0,95,0.00,,,0.84,Wunderground v.1.15,2013-05-27 21:55:00,
2013-05-27 17:00:00,67.6,65.8,29.82,ENE,77,9.0,9.0,94,0.00,,,0.84,Wunderground v.1.15,2013-05-27 22:00:00,
2013-05-27 17:05:00,67.6,65.8,29.82,ENE,77,9.0,9.0,94,0.00,,,0.84,Wunderground v.1.15,2013-05-27 22:05:00,
2013-05-27 17:10:00,67.7,65.6,29.82,East,101,9.0,9.0,93,0.00,,,0.84,Wunderground v.1.15,2013-05-27 22:10:00,
2013-05-27 17:15:00,67.8,66.0,29.82,East,84,9.0,9.0,94,0.00,,,0.84,Wunderground v.1.15,2013-05-27 22:15:00,
2013-05-27 17:20:00,67.8,65.7,29.82,East,97,9.0,9.0,93,0.00,,,0.84,Wunderground v.1.15,2013-05-27 22:20:00,
2013-05-27 17:25:00,67.7,65.9,29.81,East,98,10.0,10.0,94,0.00,,,0.84,Wunderground v.1.15,2013-05-27 22:25:00,
2013-05-27 17:30:00,67.8,65.7,29.81,ENE,71,10.0,10.0,93,0.00,,,0.84,Wunderground v.1.15,2013-05-27 22:30:00,
2013-05-27 17:35:00,67.8,65.7,29.82,East,96,9.0,10.0,93,0.00,,,0.84,Wunderground v.1.15,2013-05-27 22:35:00,
2013-05-27 17:40:00,67.8,65.4,29.82,East,96,8.0,8.0,92,0.00,,,0.84,Wunderground v.1.15,2013-05-27 22:40:00,
2013-05-27 17:45:00,67.9,65.8,29.82,East,92,8.0,9.0,93,0.00,,,0.84,Wunderground v.1.15,2013-05-27 22:45:00,
2013-05-27 17:50:00,67.9,65.5,29.82,ESE,107,7.0,7.0,92,0.00,,,0.84,Wunderground v.1.15,2013-05-27 22:50:00,
2013-05-27 17:55:00,68.0,65.6,29.82,ENE,66,7.0,7.0,92,0.00,,,0.84,Wunderground v.1.15,2013-05-27 22:55:00,
2013-05-27 18:00:00,68.0,65.9,29.82,East,89,7.0,7.0,93,0.00,,,0.84,Wunderground v.1.15,2013-05-27 23:00:00,
2013-05-27 18:10:00,67.8,65.7,29.82,ESE,105,6.0,6.0,93,0.00,,,0.84,Wunderground v.1.15,2013-05-27 23:10:00,
2013-05-27 18:15:00,67.7,65.6,29.82,ESE,105,6.0,6.0,93,0.00,,,0.84,Wunderground v.1.15,2013-05-27 23:15:00,
2013-05-27 18:20:00,67.7,65.6,29.82,ESE,109,5.0,5.0,93,0.00,,,0.84,Wunderground v.1.15,2013-05-27 23:20:00,
2013-05-27 18:25:00,67.7,65.6,29.83,ESE,113,5.0,7.0,93,0.00,,,0.84,Wunderground v.1.15,2013-05-27 23:25:00,
2013-05-27 18:30:00,67.7,65.3,29.83,ESE,111,6.0,6.0,92,0.00,,,0.84,Wunderground v.1.15,2013-05-27 23:30:00,
2013-05-27 18:35:00,67.8,65.4,29.83,ESE,122,6.0,6.0,92,0.00,,,0.84,Wunderground v.1.15,2013-05-27 23:35:00,
2013-05-27 18:40:00,67.8,65.7,29.83,ESE,103,5.0,6.0,93,0.00,,,0.84,Wunderground v.1.15,2013-05-27 23:40:00,
2013-05-27 18:45:00,67.9,65.5,29.83,East,98,5.0,6.0,92,0.00,,,0.84,Wunderground v.1.15,2013-05-27 23:45:00,
2013-05-27 18:50:00,68.1,65.7,29.83,ESE,120,5.0,5.0,92,0.00,,,0.84,Wunderground v.1.15,2013-05-27 23:50:00,
2013-05-27 18:55:00,68.2,65.8,29.83,ESE,107,5.0,5.0,92,0.00,,,0.84,Wunderground v.1.15,2013-05-27 23:55:00,
2013-05-27 19:00:00,68.1,65.7,29.83,ESE,118,5.0,6.0,92,0.00,,,0.84,Wunderground v.1.15,2013-05-28 00:00:00,
2013-05-27 19:05:00,67.9,65.5,29.83,ESE,117,5.0,6.0,92,0.00,,,0.84,Wunderground v.1.15,2013-05-28 00:05:00,
2013-05-27 19:10:00,67.8,65.4,29.84,ESE,122,6.0,6.0,92,0.00,,,0.84,Wunderground v.1.15,2013-05-28 00:10:00,
2013-05-27 19:15:00,67.6,65.5,29.84,ESE,120,6.0,6.0,93,0.00,,,0.84,Wunderground v.1.15,2013-05-28 00:15:00,
2013-05-27 19:20:00,67.5,65.4,29.84,ESE,112,6.0,6.0,93,0.00,,,0.84,Wunderground v.1.15,2013-05-28 00:20:00,
2013-05-27 19:25:00,67.4,65.3,29.84,ESE,122,5.0,6.0,93,0.00,,,0.84,Wunderground v.1.15,2013-05-28 00:25:00,
2013-05-27 19:30:00,67.3,65.2,29.84,ESE,122,5.0,5.0,93,0.00,,,0.84,Wunderground v.1.15,2013-05-28 00:30:00,
2013-05-27 19:35:00,67.2,65.1,29.83,ESE,116,4.0,5.0,93,0.00,,,0.84,Wunderground v.1.15,2013-05-28 00:35:00,
2013-05-27 19:40:00,67.2,65.4,29.83,ESE,113,5.0,5.0,94,0.00,,,0.84,Wunderground v.1.15,2013-05-28 00:40:00,
2013-05-27 19:45:00,67.1,65.3,29.83,ESE,117,5.0,5.0,94,0.00,,,0.84,Wunderground v.1.15,2013-05-28 00:45:00,
2013-05-27 19:50:00,67.0,65.2,29.83,ESE,117,5.0,5.0,94,0.00,,,0.84,Wunderground v.1.15,2013-05-28 00:50:00,
2013-05-27 19:55:00,67.0,65.2,29.84,SE,129,5.0,5.0,94,0.00,,,0.84,Wunderground v.1.15,2013-05-28 00:55:00,
2013-05-27 20:05:00,67.1,65.0,29.83,SE,132,6.0,6.0,93,0.00,,,0.84,Wunderground v.1.15,2013-05-28 01:05:00,
2013-05-27 20:10:00,67.2,65.1,29.83,ESE,116,6.0,6.0,93,0.00,,,0.84,Wunderground v.1.15,2013-05-28 01:10:00,
2013-05-27 20:15:00,67.2,65.1,29.84,SE,144,8.0,8.0,93,0.00,,,0.84,Wunderground v.1.15,2013-05-28 01:15:00,
2013-05-27 20:20:00,67.2,65.1,29.84,SE,146,8.0,8.0,93,0.00,,,0.84,Wunderground v.1.15,2013-05-28 01:20:00,
2013-05-27 20:25:00,67.1,65.0,29.83,SE,132,8.0,8.0,93,0.00,,,0.84,Wunderground v.1.15,2013-05-28 01:25:00,
2013-05-27 20:30:00,67.0,64.9,29.83,SE,136,7.0,7.0,93,0.00,,,0.84,Wunderground v.1.15,2013-05-28 01:30:00,
2013-05-27 20:35:00,66.9,64.8,29.84,SSE,151,7.0,7.0,93,0.00,,,0.84,Wunderground v.1.15,2013-05-28 01:35:00,
2013-05-27 20:45:00,66.8,64.7,29.84,SSE,159,7.0,7.0,93,0.00,,,0.84,Wunderground v.1.15,2013-05-28 01:45:00,
2013-05-27 20:50:00,66.7,64.6,29.84,SSE,150,6.0,6.0,93,0.00,,,0.84,Wunderground v.1.15,2013-05-28 01:50:00,
2013-05-27 21:00:00,66.5,64.7,29.84,SSE,163,4.0,4.0,94,0.00,,,0.84,Wunderground v.1.15,2013-05-28 02:00:00,
2013-05-27 21:05:00,66.4,64.6,29.84,SSE,157,4.0,6.0,94,0.00,,,0.84,Wunderground v.1.15,2013-05-28 02:05:00,
2013-05-27 21:10:00,66.4,64.6,29.85,SSE,158,5.0,8.0,94,0.00,,,0.84,Wunderground v.1.15,2013-05-28 02:10:00,
2013-05-27 21:15:00,66.4,64.6,29.85,SSE,160,7.0,8.0,94,0.00,,,0.84,Wunderground v.1.15,2013-05-28 02:15:00,
2013-05-27 21:20:00,66.4,64.6,29.85,SSE,153,7.0,7.0,94,0.00,,,0.84,Wunderground v.1.15,2013-05-28 02:20:00,
2013-05-27 21:25:00,66.4,64.6,29.85,SSE,167,8.0,8.0,94,0.00,,,0.84,Wunderground v.1.15,2013-05-28 02:25:00,
2013-05-27 21:30:00,66.4,64.6,29.85,SSE,148,8.0,9.0,94,0.00,,,0.84,Wunderground v.1.15,2013-05-28 02:30:00,
2013-05-27 21:40:00,66.4,64.3,29.85,SSE,158,8.0,8.0,93,0.00,,,0.84,Wunderground v.1.15,2013-05-28 02:40:00,
2013-05-27 21:45:00,66.3,64.2,29.85,SE,138,8.0,8.0,93,0.00,,,0.84,Wunderground v.1.15,2013-05-28 02:45:00,
2013-05-27 21:50:00,66.3,64.2,29.85,SE,138,7.0,7.0,93,0.00,,,0.84,Wunderground v.1.15,2013-05-28 02:50:00,
2013-05-27 22:00:00,66.2,64.1,29.86,SSE,150,5.0,5.0,93,0.00,,,0.84,Wunderground v.1.15,2013-05-28 03:00:00,
2013-05-27 22:10:00,65.9,64.1,29.86,SE,129,6.0,6.0,94,0.00,,,0.84,Wunderground v.1.15,2013-05-28 03:10:00,
2013-05-27 22:15:00,65.8,64.0,29.86,SE,142,6.0,6.0,94,0.00,,,0.84,Wunderground v.1.15,2013-05-28 03:15:00,
2013-05-27 22:20:00,65.7,63.9,29.87,SSE,151,6.0,8.0,94,0.00,,,0.84,Wunderground v.1.15,2013-05-28 03:20:00,
2013-05-27 22:25:00,65.7,64.2,29.87,SE,142,7.0,8.0,95,0.00,,,0.84,Wunderground v.1.15,2013-05-28 03:25:00,
2013-05-27 22:30:00,65.7,63.9,29.87,SSE,148,8.0,8.0,94,0.00,,,0.84,Wunderground v.1.15,2013-05-28 03:30:00,
2013-05-27 22:35:00,65.6,64.1,29.87,SE,143,7.0,8.0,95,0.00,,,0.84,Wunderground v.1.15,2013-05-28 03:35:00,
2013-05-27 22:40:00,65.6,64.1,29.87,SE,143,7.0,8.0,95,0.00,,,0.84,Wunderground v.1.15,2013-05-28 03:40:00,
2013-05-27 22:45:00,65.5,64.0,29.87,ESE,122,7.0,8.0,95,0.00,,,0.84,Wunderground v.1.15,2013-05-28 03:45:00,
2013-05-27 22:50:00,65.4,63.9,29.87,SE,127,7.0,7.0,95,0.00,,,0.84,Wunderground v.1.15,2013-05-28 03:50:00,
2013-05-27 22:55:00,65.3,63.8,29.86,ESE,122,6.0,7.0,95,0.00,,,0.84,Wunderground v.1.15,2013-05-28 03:55:00,
2013-05-27 23:00:00,65.2,63.7,29.86,SE,139,7.0,7.0,95,0.00,,,0.84,Wunderground v.1.15,2013-05-28 04:00:00,
2013-05-27 23:05:00,65.2,63.7,29.86,SE,134,7.0,8.0,95,0.00,,,0.84,Wunderground v.1.15,2013-05-28 04:05:00,
2013-05-27 23:15:00,65.1,63.6,29.85,SE,138,9.0,9.0,95,0.00,,,0.84,Wunderground v.1.15,2013-05-28 04:15:00,
2013-05-27 23:20:00,65.1,63.6,29.85,SE,132,9.0,12.0,95,0.00,,,0.84,Wunderground v.1.15,2013-05-28 04:20:00,
2013-05-27 23:25:00,65.1,63.6,29.85,SE,131,9.0,12.0,95,0.00,,,0.84,Wunderground v.1.15,2013-05-28 04:25:00,
2013-05-27 23:30:00,65.0,63.5,29.85,SSE,153,8.0,8.0,95,0.00,,,0.84,Wunderground v.1.15,2013-05-28 04:30:00,
2013-05-27 23:35:00,65.1,63.6,29.85,SSE,154,9.0,10.0,95,0.00,,,0.84,Wunderground v.1.15,2013-05-28 04:35:00,
2013-05-27 23:45:00,65.0,63.5,29.84,SE,141,10.0,11.0,95,0.00,,,0.84,Wunderground v.1.15,2013-05-28 04:45:00,
2013-05-27 23:50:00,65.0,63.5,29.84,SE,135,10.0,10.0,95,0.00,,,0.84,Wunderground v.1.15,2013-05-28 04:50:00,
2013-05-27 23:55:00,65.1,63.6,29.84,SE,124,10.0,10.0,95,0.00,,,0.84,Wunderground v.1.15,2013-05-28 04:55:00,